Tracking 29606 objects as of 18-Sep-2024
HD Live streaming from Space Station
objects crossing your sky now

INTELSAT 601

Track INTELSAT 601 now!
INTELSAT 601 is classified as:


NORAD ID: 21765
Int'l Code: 1991-075A
Perigee: 35,976.9 km
Apogee: 35,991.9 km
Inclination: 12.8 °
Period: 1,445.8 minutes
Semi major axis: 42355 km
RCS: 16.4798 m2 (large)
Launch date: October 29, 1991
Source: International Telecommunications Satellite Organization (ITSO)
Launch site: FRENCH GUIANA (FRGUI)

64 C-band, 24 Ku-band; Broadcasting, business services, direct-to-home TV broadcasting, telecommunications, VSAT networks; Indian Ocean region.
Your satellite tracking list
Your tracking list is empty




NASA's NSSDC Master Catalog

Two Line Element Set (TLE):
1 21765U 91075A   24261.59063049 -.00000154  00000-0  00000-0 0  9995
2 21765  12.7539  21.3873 0001766 167.0046  18.9398  0.99595422120026
Source of the keplerian elements: AFSPC